sat.trackr.live / text

‹ back to catalog

MERIDIAN 9

NORAD 45254 · 2020-015A

PAYLOAD ACTIVE UNKNOWN

§ Identity

Operator
Country
CIS
Launch date
2020-02-20
Launch site
PLMSC
Launch vehicle
Mass (kg)
RCS (m²)

External: N2YO · Heavens-Above · Gunter

§ Orbital elements

Epoch: 2026-09-19T04:21:52.639200Z

Period
717.79 min
Inclination
65.5409°
Eccentricity
0.6829482
Mean motion
2.00616821 rev/d
Perigee alt
2,041.4 km
Apogee alt
38,313.6 km
Semi-major
26,555.7 km
B*
0.0000e+0
RAAN
309.1171°
Arg perigee
276.3211°
Mean anomaly
16.1200°
Rev number
4,817

§ Raw data

MERIDIAN 91 45254U 20015A   26262.18185925  .00000026  00000+0  00000+0 0  99912 45254  65.5409 309.1171 6829482 276.3211  16.1200  2.00616821 48170

JSON: /api/v1/satellites/45254 · /tle

For live sub-satellite position, see the globe view (requires WebGL).

§ Visibility from observer

Set your observer location to see the next 7 days of passes ≥ 10°. The values pass through the URL so the page stays shareable.

No JS? Fill the form by hand. The geolocation button needs JavaScript.